1496700001.17,30598,20.31,73946.5,3.13,2.21,2.21,0,*7B
1496700002.41,30599,20.31,73944.8,3.15,2.21,2.21,0,*7C
1496700003.61,30600,20.31,73946.8,3.13,2.27,2.21,0,*7F
1496700004.82,30601,20.31,73944.5,3.15,2.21,2.27,0,*78
1496700006.0,30602,20.31,73942.0,3.13,2.27,2.27,0,*7B
1496700007.19,30603,20.31,73942.8,3.15,2.27,2.31,0,*7B
1496700008.38,30604,20.31,73942.5,3.15,2.31,2.31,0,*7B
1496700009.58,30605,20.31,73946.8,3.15,2.31,2.27,0,*7D
1496700010.8,30606,20.31,73944.0,3.15,2.27,2.21,0,*7F
1496700012.02,30607,20.31,73942.3,3.13,2.21,2.21,0,*7E
1496700013.21,30608,20.31,73940.3,3.15,2.27,2.31,0,*70
1496700014.4,30609,20.31,73946.3,3.15,2.27,2.31,0,*71
1496700015.62,30610,20.31,73946.8,3.15,2.21,2.27,0,*78
1496700016.82,30611,20.31,73946.0,3.15,2.27,2.27,0,*7F
1496700017.99,30612,20.31,73946.8,3.13,2.31,2.27,0,*7D
1496700019.24,30613,20.31,73944.8,3.15,2.39,2.39,0,*7D
1496700020.46,30614,20.31,73944.0,3.15,2.21,2.27,0,*7C
1496700021.65,30615,20.31,73942.3,3.15,2.27,2.27,0,*7B
1496700022.87,30616,20.31,73944.5,3.15,2.27,2.21,0,*7E
1496700024.09,30617,20.31,73944.3,3.15,2.21,2.27,0,*7F
1496700025.28,30618,20.31,73944.8,3.15,2.27,2.27,0,*76
1496700026.48,30619,20.25,73940.3,3.15,2.27,2.27,0,*77
1496700027.65,30620,20.31,73946.0,3.13,2.27,2.27,0,*7B
1496700028.87,30621,20.31,73948.0,3.13,2.21,2.21,0,*7A
1496700030.09,30622,20.31,73950.0,3.15,2.21,2.27,0,*79
1496700031.31,30623,20.31,73950.8,3.15,2.21,2.27,0,*78
1496700032.52,30624,20.31,73944.8,3.15,2.21,2.27,0,*7F
1496700033.72,30625,20.31,73944.8,3.15,2.27,2.31,0,*7F
1496700034.91,30626,20.31,73948.5,3.15,2.31,2.31,0,*7B
1496700036.1,30627,20.31,73948.5,3.15,2.27,2.27,0,*7A
1496700037.32,30628,20.31,73950.5,3.15,2.21,2.27,0,*73
1496700038.56,30629,20.31,73954.3,3.15,2.21,2.21,0,*74
1496700039.79,30630,20.31,73950.0,3.13,2.17,2.21,0,*7F
1496700041.03,30631,20.31,73948.5,3.15,2.21,2.21,0,*7D
1496700042.27,30632,20.31,73946.5,3.15,2.21,2.21,0,*7E
1496700043.49,30633,20.31,73946.3,3.13,2.21,2.21,0,*79
1496700044.72,30634,20.31,73946.5,3.15,2.21,2.21,0,*78
1496700045.94,30635,20.31,73944.5,3.15,2.27,2.21,0,*7F
1496700047.12,30636,20.31,73946.8,3.13,2.27,2.31,0,*7B
1496700048.29,30637,20.31,73950.5,3.13,2.27,2.31,0,*7A
1496700049.51,30638,20.31,73948.3,3.15,2.31,2.39,0,*7C
1496700050.73,30639,20.31,73948.0,3.15,2.39,2.31,0,*7D
1496700051.95,30640,20.31,73944.0,3.15,2.39,2.31,0,*73
1496700053.17,30641,20.31,73944.5,3.15,2.27,2.21,0,*7C
1496700054.35,30642,20.31,73944.8,3.13,2.31,2.27,0,*78
1496700055.54,30643,20.31,73944.0,3.15,2.27,2.27,0,*78
1496700056.77,30644,20.31,73944.8,3.15,2.27,2.17,0,*7C
1496700058.01,30645,20.31,73946.8,3.15,2.21,2.21,0,*7E
1496700059.24,30646,20.31,73946.0,3.13,2.17,2.17,0,*7B
1496700060.46,30647,20.31,73946.3,3.15,2.21,2.27,0,*7A
1496700061.66,30648,20.31,73944.0,3.15,2.27,2.27,0,*73
1496700062.85,30649,20.31,73946.5,3.13,2.21,2.31,0,*75
1496700064.05,30650,20.31,73942.5,3.15,2.27,2.27,0,*7A
1496700065.26,30651,20.31,73944.3,3.15,2.27,2.21,0,*7D
1496700066.44,30652,20.31,73946.5,3.13,2.27,2.27,0,*7E
1496700067.63,30653,20.31,73944.0,3.15,2.27,2.27,0,*79
1496700068.81,30654,20.31,73944.0,3.13,2.31,2.31,0,*78
1496700070.03,30655,20.31,73944.8,3.15,2.31,2.39,0,*77
1496700071.28,30656,20.31,73944.0,3.15,2.39,2.39,0,*7C
1496700072.48,30657,20.31,73942.3,3.15,2.31,2.31,0,*7D
1496700073.67,30658,20.31,73944.5,3.15,2.31,2.31,0,*72
1496700074.87,30659,20.31,73944.0,3.13,2.31,2.39,0,*7D
1496700076.09,30660,20.31,73940.3,3.15,2.39,2.31,0,*71
1496700077.31,30661,20.31,73946.0,3.15,2.39,2.31,0,*70
1496700078.51,30662,20.31,73944.0,3.15,2.27,2.27,0,*7B
1496700079.7,30663,20.31,73946.0,3.15,2.27,2.31,0,*7D
1496700080.92,30664,20.31,73946.3,3.15,2.21,2.27,0,*7B
1496700082.11,30665,20.31,73942.0,3.15,2.31,2.27,0,*7B
1496700083.3,30666,20.31,73944.3,3.15,2.27,2.31,0,*78
1496700084.53,30667,20.31,73944.8,3.15,2.31,2.39,0,*76
1496700085.75,30668,20.31,73944.8,3.15,2.31,2.39,0,*79
1496700086.93,30669,20.31,73944.3,3.13,2.31,2.31,0,*76
1496700088.15,30670,20.31,73944.0,3.15,2.27,2.21,0,*7E
1496700089.39,30671,20.31,73944.8,3.15,2.21,2.17,0,*7C
1496700090.64,30672,20.31,73946.0,3.15,2.09,2.09,0,*7A
1496700091.9,30673,20.31,73944.3,3.15,2.17,2.17,0,*7B
1496700093.12,30674,20.31,73944.8,3.13,2.21,2.21,0,*7A
1496700094.33,30675,20.25,73942.3,3.15,2.21,2.27,0,*7B
1496700095.5,30676,20.31,73946.0,3.13,2.27,2.31,0,*7F
1496700096.72,30677,20.31,73944.3,3.15,2.27,2.21,0,*79
1496700097.92,30678,20.31,73946.3,3.15,2.27,2.27,0,*70
1496700099.14,30679,20.31,73944.5,3.15,2.27,2.21,0,*77
1496700100.35,30680,20.31,73944.8,3.15,2.21,2.27,0,*71
1496700101.53,30681,20.31,73944.3,3.13,2.31,2.27,0,*77
1496700102.73,30682,20.31,73946.5,3.15,2.27,2.27,0,*75
1496700103.92,30683,20.31,73944.3,3.15,2.27,2.27,0,*74
1496700105.14,30684,20.31,73946.5,3.15,2.39,2.31,0,*7B
1496700106.34,30685,20.31,73944.8,3.15,2.27,2.27,0,*72
1496700107.54,30686,20.31,73946.5,3.13,2.31,2.39,0,*7F
1496700108.79,30687,20.31,73948.8,3.15,2.39,2.39,0,*70
1496700110.02,30688,20.31,73944.0,3.13,2.39,2.39,0,*79
1496700111.19,30689,20.31,73950.8,3.13,2.31,2.31,0,*78
1496700112.37,30690,20.25,73946.0,3.13,2.31,2.31,0,*70
1496700113.54,30691,20.31,73946.8,3.13,2.27,2.27,0,*71
1496700114.72,30692,20.31,73946.3,3.13,2.27,2.27,0,*72
1496700115.89,30693,20.31,73946.3,3.13,2.27,2.27,0,*73
1496700117.06,30694,20.31,73946.0,3.13,2.27,2.31,0,*73
1496700118.24,30695,20.25,73946.8,3.13,2.27,2.31,0,*72
1496700119.43,30696,20.31,73950.5,3.15,2.31,2.31,0,*70
1496700120.68,30697,20.31,73948.0,3.15,2.39,2.39,0,*71
1496700121.93,30698,20.31,73946.3,3.15,2.39,2.39,0,*7E
1496700123.18,30699,20.31,73944.3,3.15,2.39,2.39,0,*7F
1496700124.43,30700,20.31,73946.3,3.15,2.39,2.39,0,*7E
1496700125.68,30701,20.25,73946.3,3.15,2.39,2.39,0,*7F
1496700126.93,30702,20.31,73950.5,3.15,2.43,2.39,0,*71
1496700128.15,30703,20.31,73948.8,3.15,2.43,2.31,0,*78
1496700129.38,30704,20.31,73948.8,3.13,2.43,2.43,0,*7C
1496700130.63,30705,20.31,73944.8,3.15,2.43,2.43,0,*7B
1496700131.88,30706,20.31,73946.0,3.15,2.43,2.39,0,*75
1496700133.1,30707,20.31,73944.5,3.15,2.39,2.31,0,*71
1496700134.35,30708,20.31,73948.8,3.15,2.39,2.39,0,*76
1496700135.55,30709,20.31,73950.0,3.13,2.39,2.31,0,*79
1496700136.8,30710,20.31,73942.8,3.15,2.43,2.39,0,*72
1496700138.03,30711,20.31,73946.8,3.13,2.39,2.39,0,*78
1496700139.22,30712,20.31,73948.8,3.15,2.31,2.31,0,*7D
1496700140.42,30713,20.31,73944.0,3.15,2.31,2.31,0,*7C
1496700141.61,30714,20.31,73946.3,3.15,2.27,2.27,0,*7B
1496700142.81,30715,20.31,73944.8,3.13,2.39,2.31,0,*74
1496700144.06,30716,20.25,73946.5,3.15,2.39,2.39,0,*79
1496700145.29,30717,20.31,73948.3,3.15,2.31,2.39,0,*70
1496700146.54,30718,20.31,73948.8,3.19,2.51,2.51,0,*7B
1496700147.78,30719,20.31,73946.5,3.17,2.47,2.51,0,*73
1496700149.01,30720,20.31,73944.5,3.17,2.51,2.43,0,*7D
1496700150.24,30721,20.25,73944.8,3.17,2.51,2.47,0,*78
1496700151.46,30722,20.31,73948.3,3.17,2.47,2.47,0,*7C
1496700152.69,30723,20.31,73948.0,3.17,2.47,2.47,0,*7D
1496700153.89,30724,20.25,73944.8,3.17,2.35,2.47,0,*7F
1496700155.12,30725,20.25,73944.8,3.17,2.43,2.47,0,*7F
1496700156.35,30726,20.31,73944.8,3.17,2.43,2.47,0,*7C
1496700157.55,30727,20.31,73946.5,3.17,2.35,2.43,0,*78
1496700158.75,30728,20.25,73946.8,3.17,2.35,2.43,0,*77
1496700159.98,30729,20.31,73946.3,3.17,2.43,2.47,0,*73
1496700161.23,30730,20.31,73946.5,3.19,2.51,2.55,0,*75
1496700162.46,30731,20.31,73946.3,3.17,2.47,2.47,0,*7E
1496700163.68,30732,20.25,73946.5,3.17,2.47,2.47,0,*7D
1496700164.92,30733,20.31,73950.8,3.17,2.47,2.51,0,*7B
1496700166.17,30734,20.31,73950.8,3.19,2.51,2.51,0,*75
1496700167.4,30735,20.31,73950.3,3.17,2.51,2.47,0,*7D
1496700168.63,30736,20.31,73950.8,3.17,2.47,2.47,0,*79
1496700169.86,30737,20.25,73946.3,3.17,2.47,2.47,0,*78
1496700171.11,30738,20.31,73950.0,3.19,2.51,2.51,0,*79
1496700172.34,30739,20.31,73948.5,3.17,2.47,2.47,0,*76
1496700173.59,30740,20.31,73950.0,3.19,2.39,2.47,0,*7F
1496700174.82,30741,20.31,73950.8,3.17,2.43,2.43,0,*79
1496700176.05,30742,20.31,73950.5,3.17,2.47,2.47,0,*7A
1496700177.28,30743,20.31,73948.5,3.17,2.43,2.43,0,*7B
1496700178.51,30744,20.31,73950.8,3.17,2.43,2.43,0,*7C
1496700179.76,30745,20.31,73952.0,3.19,2.47,2.47,0,*73
1496700180.99,30746,20.31,73948.5,3.17,2.43,2.43,0,*7E
1496700182.22,30747,20.31,73950.3,3.17,2.47,2.47,0,*7F
1496700183.45,30748,20.31,73950.3,3.17,2.43,2.43,0,*70
1496700184.7,30749,20.31,73952.8,3.19,2.51,2.47,0,*78
1496700185.93,30750,20.25,73944.0,3.17,2.47,2.47,0,*79
1496700187.16,30751,20.25,73946.5,3.17,2.47,2.47,0,*78
1496700188.41,30752,20.31,73950.3,3.19,2.51,2.51,0,*75
1496700189.67,30753,20.31,73954.0,3.19,2.51,2.51,0,*74
1496700190.92,30754,20.25,73948.8,3.19,2.39,2.39,0,*73
1496700192.15,30755,20.31,73950.3,3.17,2.43,2.43,0,*7C
1496700193.36,30756,20.25,73946.0,3.17,2.43,2.35,0,*7E
1496700194.59,30757,20.31,73948.5,3.17,2.43,2.43,0,*7E
1496700195.78,30758,20.25,73948.8,3.17,2.43,2.31,0,*74
1496700196.96,30759,20.25,73948.0,3.17,2.35,2.35,0,*70
1496700198.21,30760,20.31,73950.0,3.19,2.47,2.47,0,*74
1496700199.44,30761,20.31,73950.0,3.17,2.47,2.43,0,*7F
1496700200.69,30762,20.25,73950.0,3.19,2.47,2.47,0,*76
1496700201.94,30763,20.25,73950.5,3.19,2.47,2.39,0,*7E
1496700203.2,30764,20.31,73952.0,3.19,2.47,2.39,0,*79
1496700204.45,30765,20.31,73950.8,3.19,2.47,2.47,0,*71
1496700205.7,30766,20.25,73948.5,3.19,2.47,2.47,0,*72
1496700206.92,30767,20.31,73950.0,3.17,2.39,2.47,0,*74
1496700208.17,30768,20.25,73950.0,3.19,2.47,2.47,0,*7C
1496700209.4,30769,20.25,73950.0,3.19,2.39,2.35,0,*71
1496700210.63,30770,20.25,73944.8,3.17,2.43,2.43,0,*7B
1496700211.8,30771,20.25,73948.3,3.17,2.31,2.35,0,*7E
1496700213.03,30772,20.31,73948.0,3.19,2.35,2.39,0,*7B
1496700214.2,30773,20.25,73946.0,3.17,2.31,2.35,0,*7C
1496700215.41,30774,20.31,73950.8,3.17,2.43,2.35,0,*7E
1496700216.66,30775,20.25,73946.0,3.19,2.39,2.47,0,*79
1496700217.91,30776,20.25,73942.3,3.19,2.47,2.47,0,*73
1496700219.14,30777,20.31,73944.8,3.17,2.47,2.43,0,*78
1496700220.37,30778,20.31,73948.5,3.17,2.43,2.43,0,*73
1496700221.62,30779,20.31,73954.3,3.19,2.39,2.39,0,*7C
1496700222.79,30780,20.25,73952.5,3.17,2.35,2.35,0,*74
1496700224.05,30781,20.31,73952.8,3.19,2.39,2.47,0,*72
1496700225.3,30782,20.25,73948.5,3.19,2.47,2.47,0,*78
1496700226.55,30783,20.31,73952.0,3.19,2.39,2.47,0,*70
1496700227.8,30784,20.25,73950.5,3.19,2.47,2.47,0,*7E
1496700229.05,30785,20.25,73950.5,3.19,2.39,2.47,0,*76
1496700230.28,30786,20.31,73950.8,3.17,2.43,2.43,0,*72
1496700231.53,30787,20.25,73950.8,3.19,2.47,2.47,0,*7D
1496700232.76,30788,20.25,73948.8,3.17,2.43,2.47,0,*78
1496700234.01,30789,20.31,73954.8,3.19,2.47,2.51,0,*74
1496700235.24,30790,20.25,73950.5,3.17,2.43,2.47,0,*71
1496700236.49,30791,20.25,73952.0,3.19,2.47,2.43,0,*7E
1496700237.74,30792,20.25,73948.8,3.19,2.47,2.47,0,*79
1496700238.94,30793,20.25,73950.5,3.19,2.35,2.35,0,*78
1496700240.19,30794,20.25,73946.5,3.19,2.47,2.39,0,*76
1496700241.44,30795,20.25,73946.8,3.19,2.39,2.47,0,*77
1496700242.67,30796,20.25,73948.0,3.17,2.47,2.43,0,*77
1496700243.92,30797,20.25,73948.5,3.19,2.47,2.47,0,*7C
1496700245.13,30798,20.25,73946.5,3.17,2.43,2.35,0,*7C
1496700246.38,30799,20.25,73948.5,3.19,2.47,2.47,0,*72
1496700247.63,30800,20.31,73950.8,3.19,2.39,2.47,0,*74
1496700248.88,30801,20.31,73952.3,3.19,2.47,2.47,0,*7C
1496700250.13,30802,20.25,73950.3,3.19,2.47,2.47,0,*7F
1496700251.38,30803,20.25,73948.3,3.19,2.51,2.47,0,*79
1496700252.63,30804,20.25,73950.8,3.19,2.47,2.47,0,*79
1496700253.88,30805,20.31,73954.0,3.19,2.39,2.39,0,*78
1496700255.14,30806,20.25,73950.5,3.19,2.39,2.39,0,*7B
1496700256.39,30807,20.25,73944.5,3.19,2.47,2.47,0,*7A
1496700257.61,30808,20.25,73944.8,3.19,2.35,2.39,0,*79
1496700258.86,30809,20.25,73946.5,3.19,2.47,2.47,0,*74
1496700260.11,30810,20.25,73946.5,3.19,2.47,2.47,0,*7C
1496700261.37,30811,20.25,73950.0,3.19,2.51,2.51,0,*7D
1496700262.63,30812,20.25,73946.5,3.19,2.51,2.51,0,*7E
1496700263.88,30813,20.25,73944.3,3.19,2.51,2.51,0,*7F
1496700265.11,30814,20.25,73950.3,3.17,2.47,2.47,0,*76
1496700266.34,30815,20.25,73944.3,3.17,2.51,2.47,0,*70
1496700267.57,30816,20.25,73948.8,3.17,2.43,2.43,0,*74
1496700268.82,30817,20.31,73950.3,3.19,2.39,2.39,0,*7B
1496700270.03,30818,20.25,73946.8,3.17,2.35,2.43,0,*7B
1496700271.28,30819,20.25,73948.0,3.19,2.47,2.47,0,*75
1496700272.53,30820,20.25,73948.3,3.19,2.47,2.47,0,*7F
1496700273.76,30821,20.25,73948.5,3.17,2.43,2.43,0,*70
1496700275.01,30822,20.25,73944.5,3.19,2.47,2.47,0,*7D
1496700276.24,30823,20.25,73944.0,3.17,2.43,2.43,0,*72
1496700277.49,30824,20.25,73946.5,3.19,2.47,2.47,0,*7B
1496700278.72,30825,20.25,73946.0,3.21,2.47,2.47,0,*71
1496700279.94,30826,20.25,73950.0,3.21,2.47,2.47,0,*72
1496700281.17,30827,20.25,73948.3,3.21,2.47,2.47,0,*73
1496700282.42,30828,20.25,73950.3,3.19,2.47,2.47,0,*77
1496700283.67,30829,20.25,73952.5,3.19,2.47,2.47,0,*76
1496700284.93,30830,20.25,73950.8,3.19,2.47,2.47,0,*7E
1496700286.18,30831,20.25,73950.5,3.19,2.47,2.47,0,*7F
1496700287.43,30832,20.25,73948.8,3.19,2.39,2.47,0,*75
1496700288.68,30833,20.25,73950.5,3.19,2.39,2.47,0,*74
1496700289.93,30834,20.25,73948.3,3.19,2.47,2.47,0,*7A
1496700291.18,30835,20.25,73948.5,3.19,2.47,2.51,0,*7C
1496700292.42,30836,20.25,73944.3,3.21,2.47,2.51,0,*74
1496700293.65,30837,20.25,73944.3,3.21,2.47,2.47,0,*72
1496700294.88,30838,20.25,73950.5,3.21,2.47,2.39,0,*74
1496700296.1,30839,20.25,73950.0,3.21,2.47,2.47,0,*7C
1496700297.33,30840,20.25,73950.5,3.21,2.47,2.47,0,*72
1496700298.58,30841,20.31,73950.3,3.19,2.47,2.39,0,*71
1496700299.84,30842,20.25,73946.3,3.19,2.39,2.39,0,*7B
1496700301.09,30843,20.25,73944.3,3.19,2.47,2.47,0,*7A
1496700302.34,30844,20.25,73944.5,3.19,2.47,2.47,0,*7D
1496700303.57,30845,20.25,73946.0,3.21,2.47,2.47,0,*77
1496700304.8,30846,20.25,73950.8,3.21,2.47,2.47,0,*74
1496700306.05,30847,20.25,73946.0,3.19,2.47,2.47,0,*7E
1496700307.3,30848,20.25,73946.5,3.19,2.47,2.47,0,*71
1496700308.55,30849,20.25,73942.0,3.19,2.47,2.47,0,*70
1496700309.8,30850,20.25,73950.8,3.19,2.39,2.47,0,*71
1496700311.05,30851,20.25,73944.5,3.19,2.47,2.47,0,*79
1496700312.3,30852,20.25,73944.8,3.19,2.47,2.47,0,*7A
1496700313.53,30853,20.25,73950.5,3.21,2.39,2.47,0,*79
1496700314.73,30854,20.25,73946.8,3.21,2.39,2.35,0,*7B
1496700315.96,30855,20.25,73950.0,3.21,2.47,2.47,0,*76
1496700317.2,30856,20.25,73950.5,3.19,2.39,2.47,0,*77
1496700318.41,30857,20.25,73948.0,3.17,2.43,2.35,0,*70
1496700319.61,30858,20.25,73944.3,3.17,2.43,2.35,0,*7F
1496700320.86,30859,20.25,73948.8,3.19,2.47,2.47,0,*71
1496700322.09,30860,20.25,73942.0,3.21,2.47,2.47,0,*70
1496700323.34,30861,20.25,73946.3,3.19,2.39,2.39,0,*7A
1496700324.59,30862,20.25,73948.0,3.19,2.39,2.39,0,*79
1496700325.84,30863,20.25,73946.0,3.19,2.47,2.47,0,*78
1496700327.09,30864,20.25,73942.0,3.19,2.47,2.39,0,*76
1496700328.32,30865,20.25,73946.8,3.19,2.39,2.35,0,*72
1496700329.51,30866,20.25,73946.0,3.19,2.35,2.31,0,*79
1496700330.77,30867,20.25,73944.3,3.19,2.47,2.39,0,*75
1496700332.02,30868,20.25,73940.3,3.19,2.47,2.39,0,*7A
1496700333.27,30869,20.25,73942.3,3.19,2.47,2.39,0,*7B
1496700334.5,30870,20.25,73940.0,3.19,2.39,2.35,0,*76
1496700335.69,30871,20.25,73942.5,3.17,2.39,2.31,0,*7D
1496700336.92,30872,20.25,73944.8,3.19,2.35,2.39,0,*74
1496700338.09,30873,20.25,73940.8,3.17,2.35,2.35,0,*77
1496700339.29,30874,20.25,73946.0,3.19,2.35,2.35,0,*7E
1496700340.48,30875,20.25,73944.3,3.19,2.35,2.35,0,*7F
1496700341.73,30876,20.25,73944.3,3.19,2.47,2.47,0,*7C
1496700342.99,30877,20.25,73944.0,3.19,2.39,2.39,0,*7D
1496700344.24,30878,20.25,73944.5,3.19,2.39,2.39,0,*72
1496700345.49,30879,20.25,73946.8,3.19,2.47,2.39,0,*7A
1496700346.67,30880,20.25,73944.8,3.17,2.31,2.31,0,*7B
1496700347.92,30881,20.25,73940.8,3.19,2.39,2.39,0,*74
1496700349.09,30882,20.25,73942.3,3.17,2.35,2.35,0,*79
1496700350.27,30883,20.25,73944.3,3.17,2.31,2.35,0,*7C
1496700351.44,30884,20.25,73946.5,3.17,2.31,2.31,0,*7F
1496700352.64,30885,20.25,73944.0,3.19,2.27,2.27,0,*70
1496700353.83,30886,20.25,73946.3,3.17,2.25,2.31,0,*78
1496700355.03,30887,20.25,73946.0,3.17,2.25,2.31,0,*79
1496700356.22,30888,20.25,73944.3,3.17,2.25,2.31,0,*76
1496700357.42,30889,20.25,73948.5,3.17,2.25,2.35,0,*73
1496700358.62,30890,20.25,73948.8,3.17,2.31,2.25,0,*7F
1496700359.8,30891,20.25,73946.3,3.17,2.31,2.31,0,*7B
1496700360.97,30892,20.25,73944.8,3.17,2.31,2.35,0,*7C
1496700362.14,30893,20.25,73946.0,3.17,2.31,2.31,0,*79
1496700363.34,30894,20.25,73944.5,3.19,2.35,2.31,0,*74
1496700364.51,30895,20.25,73942.0,3.17,2.31,2.31,0,*7F
1496700365.7,30896,20.25,73940.0,3.17,2.25,2.31,0,*79
1496700366.88,30897,20.25,73938.5,3.17,2.31,2.31,0,*7D
1496700368.05,30898,20.25,73940.5,3.17,2.31,2.31,0,*72
1496700369.25,30899,20.25,73936.3,3.17,2.43,2.35,0,*72
1496700370.42,30900,20.25,73938.8,3.17,2.31,2.31,0,*72
1496700371.59,30901,20.25,73936.8,3.17,2.31,2.31,0,*73
1496700372.77,30902,20.25,73942.5,3.17,2.31,2.31,0,*70
1496700373.94,30903,20.25,73936.5,3.17,2.31,2.35,0,*75
1496700375.12,30904,20.25,73938.3,3.17,2.35,2.35,0,*76
1496700376.32,30905,20.25,73942.3,3.17,2.43,2.35,0,*76
1496700377.49,30906,20.25,73938.5,3.17,2.35,2.35,0,*74
1496700378.69,30907,20.25,73942.0,3.19,2.35,2.35,0,*7B
1496700379.86,30908,20.25,73938.0,3.17,2.35,2.35,0,*7A
1496700381.06,30909,20.25,73936.8,3.17,2.35,2.43,0,*7A
1496700382.24,30910,20.25,73936.8,3.17,2.35,2.35,0,*73
1496700383.49,30911,20.25,73940.8,3.19,2.39,2.39,0,*7C
1496700384.66,30912,20.25,73944.0,3.17,2.31,2.31,0,*71
1496700385.83,30913,20.25,73942.0,3.17,2.31,2.31,0,*70
1496700387.0,30914,20.25,73936.5,3.17,2.31,2.31,0,*77
1496700388.18,30915,20.25,73942.0,3.17,2.31,2.31,0,*76
1496700389.35,30916,20.25,73940.0,3.17,2.31,2.31,0,*75
1496700390.52,30917,20.25,73946.5,3.17,2.31,2.35,0,*70
1496700391.72,30918,20.25,73944.3,3.17,2.25,2.31,0,*7E
1496700392.92,30919,20.25,73942.8,3.17,2.25,2.31,0,*7F
1496700394.08,30920,20.25,73938.8,3.17,2.35,2.31,0,*74
1496700395.31,30921,20.25,73938.5,3.17,2.43,2.43,0,*71
1496700396.55,30922,20.25,73934.3,3.17,2.43,2.43,0,*72
1496700397.75,30923,20.25,73938.8,3.17,2.35,2.43,0,*72
1496700398.98,30924,20.25,73938.3,3.17,2.43,2.43,0,*74
1496700400.21,30925,20.25,73940.0,3.17,2.43,2.43,0,*75
1496700401.44,30926,20.25,73938.3,3.17,2.43,2.43,0,*76
1496700402.64,30927,20.25,73936.3,3.17,2.35,2.43,0,*76
1496700403.84,30928,20.25,73936.0,3.17,2.43,2.35,0,*79
1496700405.05,30929,20.25,73936.5,3.17,2.35,2.43,0,*78
1496700406.22,30930,20.25,73936.5,3.17,2.35,2.35,0,*71
1496700407.45,30931,20.25,73942.5,3.17,2.43,2.43,0,*70
1496700408.68,30932,20.25,73936.8,3.17,2.43,2.47,0,*77
1496700409.91,30933,20.25,73940.8,3.17,2.43,2.43,0,*72
1496700411.14,30934,20.25,73940.8,3.17,2.43,2.43,0,*75
1496700412.37,30935,20.25,73940.0,3.17,2.43,2.43,0,*74
1496700413.59,30936,20.25,73940.8,3.17,2.43,2.47,0,*73
1496700414.83,30937,20.25,73940.8,3.17,2.43,2.43,0,*76
1496700416.05,30938,20.25,73936.8,3.17,2.47,2.43,0,*7D
1496700417.31,30939,20.25,73944.3,3.19,2.51,2.51,0,*76
1496700418.54,30940,20.25,73946.0,3.17,2.47,2.47,0,*76
1496700419.77,30941,20.25,73944.8,3.17,2.43,2.43,0,*77
1496700421.0,30942,20.25,73946.5,3.17,2.43,2.43,0,*74
1496700422.25,30943,20.25,73948.5,3.19,2.47,2.47,0,*7B
1496700423.48,30944,20.25,73946.0,3.17,2.43,2.43,0,*72
1496700424.68,30945,20.25,73944.3,3.17,2.35,2.43,0,*72
1496700425.93,30946,20.25,73946.8,3.19,2.47,2.47,0,*7E
1496700427.14,30947,20.25,73942.3,3.17,2.43,2.35,0,*70
1496700428.39,30948,20.25,73946.3,3.19,2.39,2.47,0,*79
1496700429.62,30949,20.25,73948.8,3.17,2.51,2.51,0,*7F
1496700430.87,30950,20.25,73950.5,3.19,2.55,2.55,0,*79
1496700432.1,30951,20.25,73948.0,3.17,2.51,2.47,0,*71
1496700433.33,30952,20.25,73948.0,3.17,2.47,2.51,0,*72
1496700434.55,30953,20.25,73948.0,3.21,2.55,2.55,0,*71
1496700435.8,30954,20.25,73946.5,3.19,2.51,2.55,0,*79
1496700437.05,30955,20.25,73946.3,3.19,2.51,2.55,0,*78
1496700438.28,30956,20.25,73944.3,3.17,2.43,2.47,0,*75
1496700439.54,30957,20.25,73948.5,3.19,2.51,2.51,0,*7E
1496700440.79,30958,20.25,73946.8,3.19,2.51,2.51,0,*71
1496700442.05,30959,20.25,73950.3,3.19,2.51,2.47,0,*77
1496700443.3,30960,20.25,73948.0,3.19,2.51,2.47,0,*7D
1496700444.55,30961,20.25,73948.8,3.19,2.47,2.47,0,*7B
1496700445.8,30962,20.25,73944.8,3.19,2.47,2.39,0,*71
1496700447.05,30963,20.25,73946.5,3.19,2.47,2.47,0,*79
1496700448.3,30964,20.25,73944.0,3.19,2.47,2.47,0,*7E
1496700449.5,30965,20.25,73950.5,3.17,2.35,2.43,0,*70
1496700450.76,30966,20.25,73950.5,3.19,2.47,2.47,0,*7C
1496700452.01,30967,20.25,73954.5,3.19,2.47,2.47,0,*7D
1496700453.21,30968,20.25,73952.8,3.17,2.43,2.35,0,*7D
1496700454.44,30969,20.25,73952.8,3.21,2.51,2.51,0,*78
1496700455.7,30970,20.25,73950.5,3.19,2.51,2.51,0,*7B
1496700456.95,30971,20.25,73952.5,3.19,2.55,2.51,0,*7E
1496700458.2,30972,20.25,73954.3,3.19,2.55,2.51,0,*7D
1496700459.44,30973,20.25,73954.5,3.21,2.51,2.51,0,*73
1496700460.7,30974,20.25,73954.3,3.19,2.51,2.51,0,*7F
1496700461.95,30975,20.25,73952.8,3.19,2.51,2.51,0,*7E
1496700463.21,30976,20.25,73952.5,3.19,2.47,2.51,0,*7A
1496700464.44,30977,20.25,73960.3,3.17,2.43,2.43,0,*72
1496700465.69,30978,20.25,73960.5,3.19,2.51,2.47,0,*74
1496700466.94,30979,20.25,73960.0,3.19,2.51,2.55,0,*76
1496700468.14,30980,20.25,73960.3,3.25,2.65,2.59,0,*74
1496700469.33,30981,20.25,73956.3,3.21,2.61,2.61,0,*7E
1496700470.53,30982,20.25,73954.0,3.21,2.65,2.69,0,*71
1496700471.75,30983,20.25,73954.0,3.25,2.69,2.59,0,*7B
1496700472.94,30984,20.25,73950.0,3.21,2.61,2.61,0,*7B
1496700474.12,30985,20.25,73950.3,3.21,2.65,2.65,0,*7A
1496700475.3,30986,20.25,73944.3,3.21,2.65,2.65,0,*79
1496700476.53,30987,20.25,73946.5,3.21,2.73,2.73,0,*78
1496700477.75,30988,20.25,73948.8,3.25,2.77,2.77,0,*73
1496700478.97,30989,20.25,73944.8,3.25,2.69,2.77,0,*7D
1496700480.17,30990,20.25,73952.3,3.21,2.73,2.65,0,*79
1496700481.37,30991,20.25,73950.5,3.25,2.77,2.65,0,*78
1496700482.62,30992,20.25,73950.0,3.27,2.69,2.77,0,*75
1496700483.82,30993,20.25,73954.3,3.25,2.69,2.65,0,*75
1496700485.04,30994,20.25,73954.8,3.25,2.69,2.69,0,*7E
1496700486.22,30995,20.25,73948.3,3.21,2.61,2.65,0,*7F
1496700487.42,30996,20.25,73950.8,3.25,2.69,2.65,0,*70
1496700488.62,30997,20.25,73948.0,3.27,2.65,2.65,0,*7F
1496700489.83,30998,20.25,73948.8,3.27,2.65,2.65,0,*70
1496700491.06,30999,20.25,73948.8,3.27,2.59,2.65,0,*7E
1496700492.24,31000,20.25,73948.8,3.25,2.65,2.65,0,*7B
1496700493.49,31001,20.25,73946.3,3.27,2.59,2.59,0,*78
1496700494.74,31002,20.25,73944.3,3.27,2.59,2.59,0,*7B
1496700495.97,31003,20.25,73946.3,3.27,2.59,2.65,0,*75
1496700497.18,31004,20.25,73944.5,3.27,2.65,2.65,0,*7D
1496700498.43,31005,20.25,73944.8,3.27,2.59,2.59,0,*7C
1496700499.68,31006,20.25,73946.3,3.27,2.59,2.59,0,*7F
1496700500.93,31007,20.25,73950.3,3.27,2.59,2.59,0,*7E
1496700502.19,31008,20.25,73944.0,3.27,2.59,2.59,0,*71
1496700503.44,31009,20.25,73946.3,3.27,2.59,2.59,0,*70
1496700504.69,31010,20.25,73946.3,3.27,2.59,2.59,0,*78
1496700505.88,31011,20.25,73946.8,3.29,2.61,2.61,0,*77
1496700507.1,31012,20.25,73948.5,3.27,2.59,2.65,0,*75
1496700508.33,31013,20.25,73946.5,3.27,2.59,2.65,0,*74
1496700509.57,31014,20.25,73944.8,3.29,2.59,2.59,0,*72
1496700510.81,31015,20.25,73946.8,3.27,2.55,2.55,0,*7D
1496700512.06,31016,20.25,73948.0,3.27,2.55,2.59,0,*72
1496700513.31,31017,20.25,73946.3,3.27,2.55,2.55,0,*7F
1496700514.54,31018,20.25,73942.3,3.29,2.55,2.59,0,*72
1496700515.75,31019,20.25,73946.3,3.29,2.59,2.61,0,*74
1496700516.99,31020,20.25,73942.0,3.27,2.55,2.55,0,*7B
1496700518.2,31021,20.25,73946.5,3.29,2.59,2.61,0,*7F
1496700519.45,31022,20.25,73942.5,3.27,2.59,2.55,0,*75
1496700520.68,31023,20.25,73942.8,3.27,2.55,2.65,0,*7B
1496700521.89,31024,20.25,73942.0,3.29,2.59,2.61,0,*7A
1496700523.12,31025,20.25,73946.0,3.29,2.59,2.59,0,*70
1496700524.33,31026,20.25,73944.8,3.29,2.61,2.69,0,*7B
1496700525.55,31027,20.25,73944.0,3.29,2.69,2.59,0,*71
1496700526.74,31028,20.25,73944.5,3.29,2.61,2.61,0,*7D
1496700527.98,31029,20.25,73946.3,3.27,2.55,2.55,0,*72
1496700529.21,31030,20.25,73944.3,3.27,2.59,2.65,0,*75
1496700530.44,31031,20.25,73942.5,3.27,2.59,2.65,0,*74
1496700531.67,31032,20.25,73940.3,3.29,2.69,2.69,0,*76
1496700532.87,31033,20.25,73940.3,3.29,2.61,2.69,0,*7F
1496700534.09,31034,20.25,73942.5,3.29,2.73,2.69,0,*7B